This demonstration page uses our WeatherBlox Daily Observations layout. Learn more.

Left ArrowRight Arrow

36.17497, -115.13722

Hourly Observations for September 1, 2016

Temp ( °F °C ) Dew Point ( °F °C ) Humidity (%) Winds ( mph kmh ) Pressure ( in mb ) Visibility ( mi km ) Precip ( " mm )
12:53 am 00:53 Clear 88 31.1 43 6.1 21 21 NW 6 9 29.81 1010 10 16.0934 0 0
1:53 am 01:53 Clear 86 30 44 6.7 23 23 NW 3 6 29.82 1010 10 16.0934 0 0
2:53 am 02:53 Clear 84 28.9 39 3.9 20 20 NW 6 9 29.82 1010 10 16.0934 0 0
3:53 am 03:53 Clear 82 27.8 39 3.9 22 22 Calm 29.82 1010 10 16.0934 0 0
4:53 am 04:53 Clear 81 27.2 41 5 24 24 NW 6 9 29.83 1010 10 16.0934 0 0
5:53 am 05:53 Mostly Clear 80 26.7 44 6.7 28 28 N 5 7 29.85 1011 10 16.0934 0 0
6:53 am 06:53 Sunny 80 26.7 42 5.6 26 26 Calm 29.86 1011 10 16.0934 0 0
7:53 am 07:53 Sunny 84 28.9 45 7.2 25 25 N 5 7 29.88 1012 10 16.0934 0 0
8:53 am 08:53 Sunny 88 31.1 44 6.7 22 22 Calm 29.88 1012 10 16.0934 0 0
9:53 am 09:53 Sunny 92 33.3 41 5 17 17 S 6 9 29.88 1012 10 16.0934 0 0
10:53 am 10:53 Sunny 96 35.6 40 4.4 14 14 SE 10 17 29.86 1011 10 16.0934 0 0
11:53 am 11:53 Sunny 100 37.8 45 7.2 15 15 SE 17 28 29.83 1010 10 16.0934 0 0
12:53 pm 12:53 Sunny 102 38.9 44 6.7 14 14 S 15 24 29.81 1010 10 16.0934 0 0
1:53 pm 13:53 Sunny 101 38.3 42 5.6 13 13 SW 10 17 29.79 1009 10 16.0934 0 0
2:53 pm 14:53 Sunny 99 37.2 51 10.6 20 20 SE 15 24 29.76 1008 10 16.0934 0 0
3:53 pm 15:53 Sunny 99 37.2 51 10.6 20 20 SE 17 28 29.74 1007 10 16.0934 0 0
4:53 pm 16:53 Sunny 102 39 39 4 11 11 SSE 15 24 29.56 1001 10 16.0934 0 0
5:53 pm 17:53 Sunny 101 38.3 40 4.4 12 12 WSW 10 17 29.73 1007 10 16.0934 0 0
6:53 pm 18:53 Sunny 99 37.2 40 4.4 13 13 WSW 12 19 29.73 1007 10 16.0934 0 0
7:53 pm 19:53 Clear 97 36.1 40 4.4 14 14 W 6 9 29.74 1007 10 16.0934 0 0
8:53 pm 20:53 Clear 92 33.3 48 8.9 22 22 SE 6 9 29.77 1008 10 16.0934 0 0
9:53 pm 21:53 Clear 91 32.8 54 12.2 28 28 SE 7 11 29.78 1008 10 16.0934 0 0
10:53 pm 22:53 Clear 91 32.8 51 10.6 26 26 S 5 7 29.8 1009 10 16.0934 0 0
11:53 pm 23:53 Clear 88 31.1 54 12.2 31 31 E 7 11 29.81 1010 10 16.0934 0 0

Powered by AerisWeather